www.pogodaiklimat.ru
ПОГОДА в Нурате

Архив погоды в Нурате (Навоийская область, Узбекистан)

Время
и дата
14:00 27.05
14:10 27.05
14:30 27.05
14:40 27.05
14:50 27.05
15:00 27.05
15:20 27.05
15:30 27.05
15:50 27.05
16:10 27.05
16:50 27.05
17:20 27.05
17:40 27.05
17:50 27.05
18:00 27.05
18:10 27.05
18:20 27.05
18:50 27.05
19:10 27.05
19:20 27.05
19:40 27.05
19:50 27.05
20:10 27.05
20:30 27.05
20:40 27.05
20:50 27.05
21:00 27.05
21:10 27.05
21:30 27.05
21:50 27.05
22:00 27.05
22:10 27.05
22:20 27.05
22:30 27.05
22:40 27.05
22:50 27.05
23:10 27.05
23:20 27.05
23:40 27.05
00:10 28.05
00:50 28.05
01:40 28.05
02:00 28.05
02:10 28.05
02:20 28.05
02:50 28.05
03:00 28.05
03:20 28.05
04:00 28.05
04:10 28.05
04:30 28.05
04:50 28.05
05:00 28.05
05:30 28.05
05:50 28.05
06:00 28.05
06:10 28.05
06:20 28.05
06:40 28.05
07:10 28.05
07:30 28.05
07:40 28.05
07:50 28.05
08:00 28.05
08:10 28.05
08:40 28.05
08:50 28.05
09:00 28.05
09:10 28.05
10:00 28.05
10:10 28.05
10:20 28.05
10:30 28.05
10:50 28.05
11:20 28.05
11:30 28.05
11:50 28.05
12:00 28.05
12:20 28.05
13:10 28.05
13:40 28.05
14:00 28.05
14:20 28.05
14:30 28.05
14:40 28.05
15:00 28.05
15:10 28.05
15:30 28.05
15:40 28.05
16:00 28.05
16:10 28.05
16:20 28.05
16:30 28.05
16:50 28.05
17:00 28.05
17:10 28.05
17:20 28.05
17:50 28.05
18:10 28.05
18:20 28.05
18:50 28.05
19:00 28.05
19:10 28.05
19:20 28.05
19:30 28.05
19:50 28.05
20:10 28.05
20:30 28.05
20:50 28.05
21:00 28.05
21:20 28.05
21:30 28.05
21:40 28.05
21:50 28.05
22:30 28.05
22:50 28.05
23:00 28.05
23:10 28.05
23:20 28.05
23:40 28.05
00:00 29.05
00:10 29.05
00:30 29.05
01:00 29.05
01:20 29.05
01:50 29.05
02:00 29.05
02:20 29.05
02:30 29.05
03:20 29.05
03:40 29.05
04:00 29.05
04:10 29.05
04:30 29.05
04:40 29.05
04:50 29.05
05:10 29.05
05:20 29.05
05:40 29.05
06:10 29.05
06:20 29.05
06:30 29.05
07:10 29.05
07:30 29.05
Ветер
(напр.,м/с)
Видимость Явления Солнечная радиация
(Вт/м2)
Т
(С)
Тd
(С)
f
(%)
Тe
(С)
Тes
(С)
Комфортность P
(гПа)
Po
(гПа)
Тmin
(С)
Tmax
(С)
R
(мм)
С 5.2
{9.2}
+29.1 +5.0 22 +28 +28 жарко 1010.6 954.2 +29.1 +28.4
С 6.2
{9.3}
+28.6 +5.6 23 +27 +27 жарко 1010.5 954.1 +29.3 +28.6
С 6.6
{11.1}
+29.0 +5.8 23 +28 +28 жарко 1010.5 954.1 +29.2 +28.7
С 5.6
{8.4}
+29.3 +4.5 21 +28 +28 жарко 1010.6 954.2 +29.5 +29.0
С 6.2
{9.4}
+29.2 +4.7 21 +28 +28 жарко 1010.6 954.2 +29.3 +28.9
С 7.0
{10.1}
+28.6 +5.5 23 +27 +27 жарко 1010.6 954.2 +29.4 +28.6
С 7.4
{11.0}
+28.3 +4.2 21 +27 +27 жарко 1010.4 954.0 +28.7 +28.3
С 7.7
{10.6}
+28.4 +4.9 22 +27 +27 жарко 1010.4 954.0 +28.4 +28.1
С 7.3
{10.9}
+28.2 +4.6 22 +27 +27 жарко 1010.3 953.9 +28.5 +28.0
С 7.1
{10.6}
+28.1 +5.4 24 +27 +27 жарко 1010.2 953.8 +28.5 +28.0
С 7.6
{10.6}
+27.8 +4.8 23 +27 +27 жарко 1010.4 954.0 +28.1 +27.8
С 7.2
{9.7}
+27.6 +5.4 24 +27 +27 жарко 1010.5 954.1 +27.9 +27.5
С 7.1
{9.6}
+27.4 +5.4 25 +26 +26 жарко 1010.5 954.1 +27.5 +27.3
С 7.2
{10.1}
+27.3 +5.6 25 +26 +26 жарко 1010.5 954.1 +27.4 +27.2
С 6.9
{9.6}
+27.0 +5.4 25 +26 +26 жарко 1010.5 954.1 +27.3 +27.0
С 6.3
{9.1}
+26.8 +6.0 27 +26 +26 жарко 1010.5 954.1 +27.0 +26.7
С 6.5
{9.3}
+26.5 +5.6 26 +26 +26 жарко 1010.6 954.2 +26.8 +26.4
С 5.7
{7.7}
+25.4 +6.2 29 +25 +25 комфорт 1010.7 954.3 +26.0 +25.4
С 4.4
{6.4}
+24.7 +6.3 31 +25 +25 комфорт 1010.8 954.4 +25.0 +24.7
С 3.6
{5.6}
+24.5 +6.7 32 +25 +25 комфорт 1010.8 954.4 +24.7 +24.5
СВ 1.3
{3.3}
+23.9 +7.2 34 +24 +24 комфорт 1011.1 954.7 +24.2 +23.9
Ю 1.4
{2.1}
+22.5 +8.0 39 +24 +24 комфорт 1011.2 954.8 +23.9 +22.5
С 1.3
{3.4}
+22.9 +6.3 34 +23 +23 комфорт 1011.2 954.8 +22.9 +22.6
СВ 2.3
{3.6}
+22.6 +6.5 35 +23 +23 комфорт 1011.2 954.8 +22.9 +22.6
С 1.7
{2.3}
+22.1 +6.6 36 +23 +23 комфорт 1011.4 954.9 +22.6 +22.2
С 1.9
{2.9}
+21.5 +6.9 39 +22 +22 комфорт 1011.4 954.9 +22.1 +21.6
СВ 1.1
{2.0}
+20.6 +7.6 43 +23 +23 комфорт 1011.5 955.0 +21.5 +20.7
СВ 1.1
{1.7}
+19.7 +7.6 45 +22 +22 комфорт 1011.6 955.1 +20.6 +19.8
ЮВ 0.7
{1.2}
+19.5 +7.2 45 +22 +22 комфорт 1011.7 955.2 +19.5 +19.2
ЮЗ 0.9
{1.4}
+18.1 +7.8 51 +19 +19 1011.8 955.3 +19.8 +18.1
ЮЗ 1.2
{1.8}
+18.2 +7.8 51 +19 +19 1011.8 955.3 +18.5 +18.1
З 1.8
{2.1}
+18.7 +7.6 48 +20 +20 1011.8 955.3 +18.9 +18.2
З 1.6
{2.1}
+17.6 +8.4 55 +18 +18 1011.8 955.3 +18.7 +17.6
З 2.0
{2.5}
+17.6 +7.5 52 +18 +18 1011.8 955.3 +17.8 +17.3
З 2.2
{2.7}
+18.7 +7.1 47 +20 +20 1011.7 955.2 +18.7 +17.6
З 2.4
{3.2}
+18.9 +7.3 47 +20 +20 1011.7 955.2 +19.0 +18.7
ЮЗ 1.6
{2.3}
+18.4 +7.2 48 +19 +19 1011.8 955.3 +18.5 +18.2
З 2.1
{2.7}
+18.3 +7.3 48 +19 +19 1011.9 955.4 +18.4 +18.3
З 1.9
{2.7}
+17.9 +7.5 51 +18 +18 1011.9 955.4 +18.3 +17.9
ЮЗ 1.0
{1.8}
+16.3 +8.3 59 +17 +17 1011.9 955.4 +17.6 +16.4
Ю 0.8
{0.9}
+13.8 +9.5 75 +14 +14 1011.7 955.2 +14.2 +13.8
ЮЗ 0.3
{0.6}
+13.9 +9.0 72 +16 +16 1011.4 954.9 +14.5 +13.9
З 1.6
{1.8}
+15.8 +7.5 58 +16 +16 1011.6 955.1 +15.8 +14.9
З 1.1
{1.6}
+14.4 +9.4 72 +15 +15 1011.6 955.1 +15.8 +14.5
С 0.6
{1.0}
+13.5 +10.2 81 +14 +14 1011.7 955.2 +14.4 +13.5
ЮВ 0.9
{1.6}
+12.5 +10.1 86 +13 +13 1011.9 955.4 +13.2 +12.5
Ю 0.6
{1.6}
+12.3 +10.6 89 +13 +13 1011.8 955.3 +12.5 +12.2
ЮЗ 0.5
{0.8}
+11.9 +11.0 94 +13 +13 1011.9 955.4 +12.0 +11.9
ЮЗ 1.2
{1.6}
+12.8 +10.0 83 +13 +13 1012.2 955.7 +13.1 +11.9
З 1.1
{2.5}
+12.6 +10.4 86 +12 +12 1012.3 955.8 +12.8 +12.5
ЮЗ 0.4
{0.7}
+11.5 +11.1 98 +12 +12 1012.3 955.8 +12.3 +11.5
Ю 1.2
{1.8}
+11.0 +11.0 100 +10 +10 1012.5 956.0 +11.2 +11.1
Ю 1.2
{1.9}
+11.0 +11.0 100 +10 +10 1012.5 956.0 +11.1 +10.8
Ю 0.9
{1.4}
+11.0 +11.0 100 +11 +11 1012.8 956.3 +11.0 +10.7
ЮВ 0.3
{1.0}
+11.1 +11.1 100 +12 +12 1013.1 956.6 +11.1 +11.0
СВ 0.7
{2.0}
+11.3 +11.3 100 +11 +11 1013.2 956.7 +11.3 +11.1
В 1.4
{2.0}
+12.3 +11.9 97 +12 +12 1013.4 956.8 +12.3 +11.3
В 2.0
{2.4}
+13.5 +11.7 89 +13 +13 1013.5 956.9 +13.5 +12.3
В 1.9
{2.7}
+15.6 +11.0 74 +16 +16 1013.5 956.9 +15.6 +14.6
В 1.1
{1.6}
+18.8 +10.3 58 +20 +20 1013.5 956.9 +18.7 +17.7
В 1.9
{3.0}
+20.4 +9.5 49 +22 +22 комфорт 1013.5 956.9 +20.4 +19.4
В 2.5
{3.7}
+21.3 +8.8 45 +23 +23 комфорт 1013.5 956.9 +21.3 +20.4
В 2.6
{3.8}
+22.5 +6.2 35 +23 +23 комфорт 1013.5 956.9 +22.5 +21.3
В 2.5
{3.9}
+23.5 +5.2 30 +23 +23 комфорт 1013.6 957.0 +23.5 +22.5
СВ 2.9
{4.1}
+24.3 +2.8 25 +24 +24 комфорт 1013.7 957.1 +24.2 +23.5
СВ 4.2
{6.4}
+25.3 -1.0 18 +24 +24 комфорт 1013.8 957.2 +25.4 +25.0
СВ 4.0
{6.6}
+25.8 +0.4 19 +24 +24 комфорт 1013.9 957.3 +25.7 +25.3
СВ 5.2
{7.8}
+26.0 -0.9 17 +24 +24 комфорт 1013.9 957.3 +26.0 +25.8
СВ 6.0
{9.2}
+26.2 -0.1 18 +24 +24 комфорт 1014.0 957.4 +26.2 +25.9
С 6.7
{9.6}
+26.6 -1.1 16 +24 +24 комфорт 1014.2 957.6 +26.9 +26.5
С 7.2
{12.4}
+26.6 -1.0 16 +24 +24 комфорт 1014.2 957.6 +27.0 +26.6
СВ 6.2
{9.4}
+27.1 -1.1 16 +25 +25 комфорт 1014.2 957.6 +27.5 +26.6
СВ 7.4
{10.9}
+27.1 -2.4 14 +25 +25 комфорт 1014.2 957.6 +27.2 +26.7
СВ 6.6
{10.7}
+27.2 -0.8 16 +25 +25 комфорт 1014.3 957.7 +27.6 +27.0
СВ 6.3
{10.1}
+27.7 -1.4 15 +25 +25 комфорт 1014.3 957.7 +27.9 +27.3
С 6.4
{9.4}
+28.0 -1.8 14 +25 +25 комфорт 1014.3 957.7 +28.0 +27.5
С 7.0
{10.9}
+27.5 -0.9 16 +25 +25 комфорт 1014.3 957.7 +27.9 +27.5
С 6.5
{9.6}
+28.2 -1.6 14 +25 +25 комфорт 1014.3 957.7 +28.2 +27.5
С 7.3
{12.4}
+27.9 -2.5 14 +25 +25 комфорт 1014.3 957.7 +28.2 +27.9
С 7.0
{11.7}
+28.9 -1.6 14 +26 +26 жарко 1014.2 957.6 +29.0 +28.4
С 7.3
{10.7}
+28.6 -3.1 12 +26 +26 жарко 1014.2 957.6 +28.7 +28.3
СВ 6.4
{9.9}
+28.8 -1.6 14 +26 +26 жарко 1014.2 957.6 +29.0 +28.7
С 6.6
{10.5}
+28.5 -2.0 14 +26 +26 жарко 1014.2 957.6 +28.7 +28.5
С 6.2
{10.8}
+28.6 -2.3 13 +26 +26 жарко 1014.1 957.5 +29.2 +28.5
С 6.6
{9.8}
+28.7 -2.6 13 +26 +26 жарко 1014.1 957.5 +28.9 +28.6
СВ 5.8
{9.8}
+28.9 -2.0 13 +26 +26 жарко 1014.1 957.5 +29.2 +28.7
С 6.5
{10.1}
+28.6 -2.0 14 +26 +26 жарко 1014.0 957.4 +29.2 +28.6
С 5.8
{11.7}
+28.5 -1.0 15 +26 +26 жарко 1013.9 957.3 +29.1 +28.4
С 7.2
{10.8}
+28.5 -2.4 13 +26 +26 жарко 1013.9 957.3 +29.1 +28.5
С 6.2
{10.0}
+28.7 -2.5 13 +26 +26 жарко 1013.9 957.3 +29.0 +28.6
С 5.8
{8.9}
+28.7 -2.2 13 +26 +26 жарко 1014.0 957.4 +28.7 +28.4
СВ 5.6
{8.5}
+28.8 -1.0 14 +26 +26 жарко 1014.0 957.4 +29.0 +28.7
С 5.7
{9.2}
+28.5 -1.5 14 +26 +26 жарко 1013.9 957.3 +28.9 +28.5
С 6.5
{11.7}
+28.4 -1.1 15 +26 +26 жарко 1013.8 957.2 +28.7 +28.3
С 5.9
{9.0}
+28.3 -2.5 13 +25 +25 комфорт 1013.9 957.3 +28.6 +28.3
С 5.4
{8.1}
+28.2 -0.7 15 +26 +26 жарко 1013.8 957.2 +28.4 +28.2
С 5.0
{6.9}
+28.3 -3.2 13 +25 +25 комфорт 1013.7 957.1 +28.3 +28.2
С 5.5
{8.1}
+27.9 -2.5 14 +25 +25 комфорт 1013.6 957.0 +28.1 +27.9
С 5.8
{9.2}
+27.6 -2.2 14 +25 +25 комфорт 1013.6 957.0 +27.7 +27.5
С 5.5
{8.5}
+27.5 -2.5 14 +25 +25 комфорт 1013.6 957.0 +27.6 +27.5
С 4.1
{5.9}
+26.9 -1.2 16 +25 +25 комфорт 1013.8 957.2 +27.1 +26.9
С 3.7
{5.6}
+26.7 -0.6 17 +25 +25 комфорт 1013.8 957.2 +26.9 +26.7
С 4.6
{6.9}
+26.3 -1.7 16 +24 +24 комфорт 1013.8 957.2 +26.7 +26.3
С 3.8
{5.9}
+25.9 -0.8 17 +24 +24 комфорт 1013.9 957.3 +26.4 +25.9
С 3.4
{5.0}
+25.5 -0.7 18 +24 +24 комфорт 1013.9 957.3 +25.9 +25.5
С 3.6
{5.3}
+23.5 +0.2 21 +22 +22 комфорт 1014.0 957.4 +24.9 +24.4
С 2.8
{3.6}
+22.9 +0.4 22 +22 +22 комфорт 1014.2 957.6 +23.5 +22.9
С 3.1
{4.2}
+22.1 +0.6 24 +22 +22 комфорт 1014.2 957.6 +22.3 +22.1
С 4.4
{6.8}
+22.3 +0.2 23 +22 +22 комфорт 1014.4 957.8 +22.3 +21.6
С 4.4
{6.8}
+22.1 +0.8 24 +22 +22 комфорт 1014.5 957.9 +22.3 +22.1
С 4.7
{6.9}
+22.1 +1.4 25 +22 +22 комфорт 1014.7 958.1 +22.1 +22.0
С 4.4
{6.8}
+21.8 +1.8 27 +22 +22 комфорт 1014.8 958.2 +22.1 +21.8
С 4.7
{6.9}
+21.7 +1.5 26 +21 +21 комфорт 1014.9 958.3 +21.8 +21.6
С 5.3
{8.5}
+21.7 +1.1 26 +21 +21 комфорт 1014.9 958.3 +21.7 +21.6
СВ 4.3
{6.7}
+21.0 +0.9 26 +21 +21 комфорт 1015.3 958.7 +21.1 +21.0
В 3.6
{5.6}
+19.9 +0.9 28 +20 +20 1015.7 959.0 +19.9 +19.6
В 3.4
{6.1}
+21.0 +0.3 25 +21 +21 комфорт 1015.8 959.1 +21.0 +19.9
СВ 4.5
{8.3}
+21.0 -0.3 24 +21 +21 комфорт 1015.7 959.0 +21.1 +20.6
СВ 5.5
{8.5}
+21.0 -0.5 24 +21 +21 комфорт 1015.7 959.0 +21.2 +20.9
СВ 5.0
{7.9}
+20.5 -0.6 24 +20 +20 1015.7 959.0 +21.2 +20.5
СВ 3.8
{5.3}
+19.4 0.0 27 +20 +20 1015.6 958.9 +20.3 +19.5
СВ 4.0
{6.2}
+18.6 +0.5 29 +19 +19 1015.6 958.9 +19.5 +18.7
СВ 4.6
{6.4}
+19.0 -0.6 27 +19 +19 1015.4 958.8 +19.0 +18.3
СВ 2.6
{3.7}
+16.2 +1.2 36 +16 +16 1015.2 958.6 +17.2 +16.2
СВ 4.1
{5.7}
+17.8 -0.1 30 +18 +18 1015.1 958.5 +17.8 +16.7
СВ 3.4
{4.3}
+17.1 +0.4 32 +17 +17 1015.1 958.5 +18.0 +17.2
СВ 3.0
{4.4}
+16.5 +0.6 34 +16 +16 1015.1 958.5 +17.1 +16.5
СВ 2.8
{3.5}
+15.2 +1.5 39 +15 +15 1015.0 958.4 +16.1 +15.2
СВ 2.9
{3.7}
+14.9 +1.2 39 +14 +14 1015.0 958.4 +15.2 +14.8
СВ 2.0
{3.5}
+14.3 +1.6 42 +14 +14 1014.7 958.1 +14.3 +13.5
В 1.7
{3.5}
+12.8 +2.5 49 +13 +13 1014.7 958.1 +13.1 +12.4
В 0.5
{1.0}
+13.3 +1.0 43 +15 +15 1014.7 958.1 +13.3 +12.6
СВ 1.5
{2.1}
+14.0 +1.2 42 +14 +14 1014.7 958.1 +14.1 +13.3
В 2.0
{3.5}
+12.6 +1.9 48 +12 +12 1014.6 958.0 +12.7 +12.6
В 1.0
{1.7}
+12.3 +2.4 51 +13 +13 1014.6 958.0 +12.6 +12.3
В 1.4
{2.1}
+11.4 +2.7 55 +11 +11 1014.6 958.0 +12.3 +11.4
В 2.3
{2.9}
+12.4 +1.9 49 +12 +12 1014.7 958.1 +12.4 +11.7
ЮВ 2.1
{2.8}
+11.9 +2.5 53 +11 +11 1014.7 958.1 +12.5 +11.9
ЮВ 1.6
{2.6}
+12.9 +2.6 50 +13 +13 1014.7 958.1 +12.9 +12.3
ЮЗ 1.7
{3.1}
+14.6 +2.7 44 +15 +15 1014.7 958.1 +14.6 +14.2
З 1.4
{2.5}
+15.3 +3.5 45 +16 +16 1014.7 958.1 +15.3 +14.6
З 1.2
{2.4}
+15.9 +4.3 46 +17 +17 1014.7 958.1 +15.9 +15.3
З 0.8
{1.5}
+18.1 +3.6 38 +19 +19 1014.5 957.9 +18.3 +18.1
СЗ 2.2
{3.6}
+18.1 +2.2 35 +19 +19 1014.6 958.0 +18.2 +18.0
Местоположение метеостанции Нурата (Навоийская область, Узбекистан): широта 40.55 долгота 65.72 высота над уровнем моря 0 м.
В архиве по умолчанию представлена погода в Нурате за последние 1-2 суток. Обновление информации о фактической погоде в базе происходит ежечасно! Архивные данные за месяц целиком и за предыдущие месяцы Вы можете получить, выбрав интересующий диапазон дат из раскрывающегося списка и нажав кнопку "Ввод!".
*Определитесь, кто Вы:
Внимание! Время в таблицах - местное (без учета летнего времени). Для получения всемирного времени необходимо вычесть поправку, которая равна 5 ч.
Смотрите также архив погоды на ближайших метеорологических станциях:
Партнеры нашего сайта:      
Пояснения к столбцам:
  • Ветер - указаны скорость ветра в м/с - средняя за 10 мин, порывы в срок и между сроками (в фигурных скобках) и направление, откуда дует ветер: С - северный,
  • СВ - северо-восточный, В - восточный, ЮВ - юго-восточный, Ю - южный, ЮЗ - юго-западный, З - западный, СЗ - северо-западный.
  • Видимость - горизонтальная дальность видимости в метрах или километрах. При видимости от 1 до 10 км при отсутствии осадков обычно наблюдается дымка, при ухудшении видимости до 1 км и менее - туман. В сухую погоду видимость может ухудшаться дымом, пылью или мглою.
  • Явления - указаны атмосферные явления, наблюдавшиеся в срок или в последний час перед сроком.
  • Солнечная радиация - мощность потока солнечного излучения на поверхность земли и предметов в Вт/м2.
  • T - Температура воздуха - температура, измеренная на высоте 2 м над землей.
  • Td - Температура точки росы - температура, при понижении до которой содержащийся в воздухе водяной пар достигнет насыщения.
  • f - Относительная влажность воздуха - влажноcть воздуха, измеренная на высоте 2 м над землей.
  • Te - Эффективная температура - температура, которую ощущает одетый по сезону человек в тени. Характеристика душности погоды. При расчете учитывается влияние влажности воздуха и скорости ветра на теплоощущения человека.
  • Tes - Эффективная температура на солнце - температура, которую ощущает человек, с поправкой на солнечный нагрев. Характеристика знойности погоды. Зависит от высоты солнца над горизонтом, облачности и скорости ветра. Ночью, в пасмурную погоду, а также при ветре 12 м/с и более поправка равна нулю.
  • P - Атмосферное давление - приведенное к уровню моря атмосферное давление.
  • Po - Атмосферное давление - измеренное на уровне метеостанции атмосферное давление.
  • Tmin - Минимальная температура - минимум температуры воздуха на высоте 2 м над землей.
  • Tmax - Максимальная температура - максимум температуры воздуха на высоте 2 м над землей.
  • R - Количество осадков - Количество выпавших осадков за период времени, мм. При наведении курсора мыши на число - период времени, за который выпало указанное количество осадков.